Regional Weather Roundup
Issued by NWS

Home | Current Version | Previous Version | Text Only | Print | Product List | Glossary On
Versions: 1 2 3 4 5 6 7 8 9 10 11 12 13 14 15 16 17 18 19 20 21 22 23 24 25 26 27 28 29 30 31 32 33 34 35 36 37 38 39 40 41 42 43 44 45 46 47 48 49 50
000
ASUS43 KTOP 200508
RWRKS

WEATHER ROUNDUP FOR KANSAS
NATIONAL WEATHER SERVICE GOODLAND KS
1200 AM CDT FRI OCT 20 2017

NOTE:  "FAIR" INDICATES FEW OR NO CLOUDS BELOW 12,000 FEET WITH NO
SIGNIFICANT WEATHER AND/OR OBSTRUCTIONS TO VISIBILITY.

KSZ001>006-013>018-027>032-041>047-200600-
NORTHWEST KANSAS

CITY           SKY/WX    TMP DP  RH WIND       PRES   REMARKS
GOODLAND       PTCLDY    57  44  62 S16       29.90F
HAYS           FAIR      62  48  60 S14       29.98S
HILL CITY      FAIR      63  46  54 S12       29.95F
RUSSELL        FAIR      63  50  62 S17G25    29.98R
$$

KSZ061>065-074>080-084>089-200600-
SOUTHWEST KANSAS

CITY           SKY/WX    TMP DP  RH WIND       PRES   REMARKS
DODGE CITY     FAIR      58  45  62 SE13      30.01S
ELKHART          N/A     59  49  69 S10         N/A
GARDEN CITY    FAIR      60  46  59 S14G24    29.97F
GREAT BEND     FAIR      61  50  67 S15       30.01S
LIBERAL        FAIR      60  47  61 S16       29.99F
PRATT          FAIR      61  48  62 S16       30.03F
$$

KSZ066>073-081>083-090>101-200600-
SOUTHEAST KANSAS

CITY           SKY/WX    TMP DP  RH WIND       PRES   REMARKS
CHANUTE        FAIR      55  51  86 S7        30.11S
COFFEYVILLE    FAIR      55  52  89 S5        30.11S
HUTCHINSON     FAIR      63  54  72 S15       30.04S
MEDICINE LODGE   N/A     59  50  72 SE7       30.05S
NEWTON         FAIR      61  52  72 S16       30.07R
PARSONS        FAIR      52  50  93 CALM      30.12S
WICHITA INTL   FAIR      61  54  77 S16       30.06S
WICHITA JABRA  FAIR      60  54  80 S9        30.07S
WICHITA MCCONL CLEAR     60  52  75 S12       30.07S
WINFIELD       FAIR      61  56  83 S10       30.09S
$$

KSZ007>012-019>026-033>040-048>060-102>105-200600-
NORTHEAST KANSAS

CITY           SKY/WX    TMP DP  RH WIND       PRES   REMARKS
CONCORDIA      FAIR      63  49  60 S18G25    29.99S
EMPORIA        FAIR      59  52  77 S15       30.07S
LAWRENCE       FAIR      56  52  86 E7        30.08S
MANHATTAN      FAIR      63  52  67 S12       30.04R
MARYSVILLE     FAIR      61  48  63 S9        30.02S
OLATHE IND     FAIR      56  52  86 S7        30.09S
OLATHE EXE     FAIR      57  53  86 S7        30.09S
SALINA         FAIR      64  52  64 S16       30.02S
TOPEKA BILLARD FAIR      61  54  77 S6        30.06S
TOPEKA FORBES  FAIR      61  54  77 S9        30.06S
$$



USA.gov is the U.S. government's official web portal to all federal, state and local government web resources and services.